DateTimeUTC,F1_A11,F1_S11,BsB_S11,BsG_S11,BsR_S11,BbsB_S11,BbsG_S11,BbsR_S11,BaB_A11,BaG_A11,BaR_A11,Tu_S11,T_S11,Uu_S11,U_S11,P_S11,T1_A11
2021-04-15T04:00:00Z,00000200,21000000,,,,,,,-000.21,0000.03,-000.15,16.6,24.3,,00.0,0647.9,31.0
2021-04-15T04:01:00Z,00000200,21000000,,,,,,,0000.33,0000.12,-000.28,16.6,24.3,,00.0,0647.9,31.0
2021-04-15T04:02:00Z,00000200,21000000,,,,,,,0000.12,-000.16,0000.37,16.5,24.3,,00.0,0647.9,31.0
2021-04-15T04:03:00Z,00000200,61000000,,,,,,,-000.02,-000.16,-000.10,16.5,24.3,,00.0,0647.9,30.9
2021-04-15T04:04:00Z,00000200,41000000,0001.69,0000.99,0000.26,0000.35,0000.27,-000.04,-000.05,0000.36,0000.29,16.5,24.0,,00.0,0648.7,30.9
2021-04-15T04:05:00Z,00000200,01000000,0001.44,0001.11,0000.22,0000.11,0000.29,0000.04,0000.37,0000.27,0000.50,16.4,23.9,,00.0,0648.8,30.9
2021-04-15T04:06:00Z,00000200,01000000,0000.93,0000.98,0000.46,0000.29,0000.37,0000.14,0000.93,0000.76,0000.03,16.4,23.9,,00.0,0648.8,30.9
2021-04-15T04:07:00Z,00000200,01000000,0001.23,0001.03,0000.41,-000.11,0000.09,-000.06,0000.18,0000.43,0000.68,16.4,23.8,,00.0,0648.8,30.9
2021-04-15T04:08:00Z,00000200,01000000,0001.52,0001.04,0000.44,0000.15,0000.19,0000.09,0000.63,0000.48,0000.09,16.5,23.8,,00.0,0648.8,31.0
2021-04-15T04:09:00Z,00000200,01000000,0001.55,0001.40,0000.30,0000.21,-000.04,0000.23,0000.57,0000.32,0000.56,16.6,23.9,,00.0,0648.8,31.0
2021-04-15T04:10:00Z,00000200,01000000,0001.78,0000.97,0000.13,0000.00,0000.21,-000.16,-000.07,0000.58,0000.44,16.7,23.9,,00.0,0648.8,31.0
2021-04-15T04:11:00Z,00000200,01000000,0001.92,0001.12,0000.65,0000.02,-000.17,-000.14,0000.34,-000.25,0000.01,16.7,24.0,,00.0,0648.8,31.0
2021-04-15T04:12:00Z,00000200,01000000,0001.24,0001.22,0000.36,0000.04,0000.23,0000.05,0000.92,0001.14,0000.58,16.8,24.0,,00.0,0648.8,31.0
2021-04-15T04:13:00Z,00000200,01000000,0001.36,0001.14,0000.36,0000.16,0000.16,0000.23,0000.45,0000.83,0000.47,16.9,24.0,,00.0,0648.8,31.0
2021-04-15T04:14:00Z,00000200,01000000,0001.98,0001.19,0000.80,0000.58,0000.15,0000.17,0000.59,0000.05,0000.32,17.0,24.0,,00.0,0648.8,31.0
2021-04-15T04:15:00Z,00000200,01000000,0001.38,0001.12,0000.40,0000.40,0000.10,0000.38,0000.69,0000.42,0000.06,17.0,24.0,,00.0,0648.8,31.0
2021-04-15T04:16:00Z,00000200,01000000,0001.64,0000.90,0000.43,0000.29,0000.37,0000.11,-000.21,0000.15,0000.55,17.0,24.1,,00.0,0648.8,31.0
2021-04-15T04:17:00Z,00000200,01000000,0001.50,0001.27,0000.71,0000.22,0000.29,0000.37,0000.79,0000.56,0000.20,16.9,24.0,,00.0,0648.8,31.0
2021-04-15T04:18:00Z,00000200,01000000,0001.91,0001.19,0000.58,-000.07,0000.27,0000.27,-000.01,0000.35,-000.03,16.8,24.0,,00.0,0648.8,31.0
2021-04-15T04:19:00Z,00000200,01000000,0001.77,0001.27,0000.57,-000.24,0000.04,0000.12,0000.61,0000.05,0000.43,16.7,23.9,,00.0,0648.8,31.0
2021-04-15T04:20:00Z,00000200,01000000,0001.33,0001.28,0000.57,0000.27,0000.04,0000.08,0000.29,0000.47,0000.38,16.7,23.9,,00.0,0648.7,30.9
2021-04-15T04:21:00Z,00000200,01000000,0001.31,0000.94,0000.40,0000.15,0000.35,0000.15,0000.79,0000.89,0000.13,16.7,23.9,,00.0,0648.7,30.9
2021-04-15T04:22:00Z,00000200,01000000,0001.03,0001.15,0000.53,0000.27,0000.22,0000.24,0000.41,0000.18,0000.87,16.7,23.9,,00.0,0648.7,31.0
2021-04-15T04:23:00Z,00000200,01000000,0001.46,0001.05,0000.40,-000.14,0000.07,0000.13,0000.38,0000.22,-000.03,16.7,23.9,,00.0,0648.7,31.0
2021-04-15T04:24:00Z,00000200,01000000,0001.31,0000.99,0000.53,0000.24,0000.23,0000.40,0000.27,0000.63,0000.26,16.8,23.9,,00.0,0648.7,31.0
2021-04-15T04:25:00Z,00000200,01000000,0001.61,0000.81,0000.67,0000.21,0000.01,0000.14,0000.66,0000.26,0000.63,16.9,24.0,,00.0,0648.7,31.0
2021-04-15T04:26:00Z,00000200,01000000,0002.13,0001.18,0000.65,0000.56,-000.08,-000.01,0000.42,0000.96,0000.20,17.0,24.0,,00.0,0648.7,31.0
2021-04-15T04:27:00Z,00000200,01000000,0001.56,0001.05,0000.50,0000.40,0000.22,0000.10,0000.60,0000.66,0000.75,17.0,24.0,,00.0,0648.7,31.0
2021-04-15T04:28:00Z,00000200,01000000,0001.37,0001.17,0000.56,-000.07,0000.17,0000.14,0000.58,0000.15,0000.32,17.1,24.1,,00.0,0648.7,31.0
2021-04-15T04:29:00Z,00000200,01000000,0001.75,0001.26,0000.50,0000.42,0000.40,-000.11,0000.23,0000.22,0000.03,17.1,24.1,,00.0,0648.7,31.0
2021-04-15T04:30:00Z,00000200,01000000,0001.77,0001.04,0000.35,0000.27,0000.27,-000.11,0000.48,0000.56,0000.23,17.0,24.0,,00.0,0648.7,31.0
2021-04-15T04:31:00Z,00000200,01000000,0001.83,0001.27,0000.66,0000.40,0000.18,0000.46,0001.16,0000.32,0000.48,17.0,24.0,,00.0,0648.6,31.0
2021-04-15T04:32:00Z,00000200,01000000,0001.51,0001.14,0000.60,0000.51,0000.19,0000.22,0000.15,0000.71,0000.16,16.9,24.0,,00.0,0648.6,31.0
2021-04-15T04:33:00Z,00000200,01000000,0001.98,0001.11,0000.47,0000.58,-000.12,0000.06,0000.47,0000.20,0000.40,16.8,24.0,,00.0,0648.6,31.0
2021-04-15T04:34:00Z,00000200,01000000,0001.86,0001.14,0000.35,0000.41,0000.27,-000.03,0000.56,0000.38,0000.50,16.7,23.9,,00.0,0648.6,30.9
2021-04-15T04:35:00Z,00000200,01000000,0001.40,0001.07,0000.41,0000.20,0000.04,0000.07,-000.44,0000.17,-000.11,16.7,23.9,,00.0,0648.6,30.9
2021-04-15T04:36:00Z,00000200,01000000,0001.37,0001.02,0000.51,0000.35,0000.27,-000.13,0001.01,0000.52,0000.64,16.6,23.9,,00.0,0648.7,30.9
2021-04-15T04:37:00Z,00000200,01000000,0001.97,0000.86,0000.19,0000.05,0000.20,0000.21,0000.28,0000.34,0000.19,16.6,23.9,,00.0,0648.7,30.9
2021-04-15T04:38:00Z,00000200,01000000,0001.71,0001.07,0000.38,0000.65,0000.24,0000.36,0000.58,0000.29,0000.36,16.7,23.9,,00.0,0648.7,31.0
2021-04-15T04:39:00Z,00000200,01000000,0001.69,0001.13,0000.51,0000.23,0000.19,-000.23,0000.60,0000.73,0000.63,16.8,23.9,,00.0,0648.7,31.0
2021-04-15T04:40:00Z,00000200,01000000,0002.02,0001.02,0000.45,0000.36,0000.06,0000.05,0000.88,0001.03,0000.41,16.8,23.9,,00.0,0648.7,31.0
2021-04-15T04:41:00Z,00000200,01000000,0001.61,0000.99,0000.30,0000.34,0000.11,0000.24,0000.13,0000.12,0000.08,16.9,24.0,,00.0,0648.7,31.0
2021-04-15T04:42:00Z,00000200,01000000,0001.84,0001.35,0000.57,0000.09,0000.08,0000.15,0000.28,0000.21,0000.65,17.0,24.0,,00.0,0648.7,31.0
2021-04-15T04:43:00Z,00000200,01000000,0001.65,0001.26,0000.64,0000.05,0000.08,0000.26,0000.67,0000.26,0000.25,17.1,24.0,,00.0,0648.7,31.0
2021-04-15T04:44:00Z,00000200,01000000,0001.85,0000.90,0000.50,-000.06,0000.37,0000.28,0000.63,0001.16,0000.40,17.1,24.1,,00.0,0648.7,31.0
2021-04-15T04:45:00Z,00000200,01000000,0001.93,0001.09,0000.45,0000.01,0000.09,0000.04,0000.39,0000.05,0000.39,17.2,24.1,,00.0,0648.7,31.0
2021-04-15T04:46:00Z,00000200,01000000,0001.44,0001.41,0000.51,0000.36,0000.01,0000.37,0000.68,0000.55,0000.37,17.2,24.1,,00.0,0648.7,31.0
2021-04-15T04:47:00Z,00000200,01000000,0001.78,0001.05,0000.44,0000.18,0000.17,0000.31,0000.17,0000.41,0000.32,17.2,24.1,,00.0,0648.7,31.0
2021-04-15T04:48:00Z,00000200,01000000,0001.62,0001.22,0000.56,0000.35,0000.31,-000.23,0000.57,0000.33,0000.12,17.1,24.1,,00.0,0648.7,31.0
2021-04-15T04:49:00Z,00000200,01000000,0001.85,0001.02,0000.47,0000.84,0000.33,-000.09,0000.18,0000.33,0000.04,17.0,24.1,,00.0,0648.7,31.0
2021-04-15T04:50:00Z,00000200,01000000,0001.78,0001.19,0000.30,0000.42,0000.08,-000.07,0000.75,-000.02,0000.58,17.0,24.0,,00.0,0648.7,31.0
2021-04-15T04:51:00Z,00000200,01000000,0001.97,0001.19,0000.41,0000.58,0000.15,-000.10,0000.52,0000.80,0000.28,16.9,24.0,,00.0,0648.7,31.0
2021-04-15T04:52:00Z,00000200,01000000,0002.07,0000.80,0000.37,0000.21,-000.12,0000.15,0000.80,0001.11,0000.84,16.9,24.0,,00.0,0648.7,31.0
2021-04-15T04:53:00Z,00000200,01000000,0002.01,0000.93,0000.32,0000.05,0000.40,0000.37,0000.55,0000.58,0000.28,17.0,24.0,,00.0,0648.7,31.0
2021-04-15T04:54:00Z,00000200,01000000,0001.85,0001.25,0000.38,0000.51,0000.01,0000.23,0000.65,0000.24,0000.58,17.0,24.0,,00.0,0648.7,31.0
2021-04-15T04:55:00Z,00000200,01000000,0002.08,0000.95,0000.35,0000.19,0000.26,0000.10,0000.28,0000.71,0000.48,17.1,24.1,,00.0,0648.7,31.0
2021-04-15T04:56:00Z,00000200,01000000,0001.47,0001.18,0000.66,0000.59,0000.24,0000.03,0000.45,0000.02,0000.10,17.1,24.1,,00.0,0648.7,31.0
2021-04-15T04:57:00Z,00000200,41000000,,,,,,,0001.30,0001.39,0000.60,17.2,24.1,,00.0,0648.6,31.0
2021-04-15T04:58:00Z,00000200,61000000,,,,,,,-000.41,-000.16,0000.22,16.8,24.3,,00.0,0647.7,31.0
2021-04-15T04:59:00Z,00000200,21000000,,,,,,,-000.41,-000.47,-000.38,16.8,24.4,,00.0,0647.7,31.0
